This is the latest recevied weather packets stored in our database for station/object ED5YAL-15. If no packets are shown the sender has not sent any weather packets the latest 10 day(s).
| Time | Temp. | Humidity | Pressure | Rain* | Wind** | Luminosity | Snow |
|---|---|---|---|---|---|---|---|
| 1777359695 | 16.67° C | 45% | 1017.1 hPa | - | - | - | - |
| 1777358794 | 16.11° C | 45% | 1017.1 hPa | - | - | - | - |
| 1777357893 | 15.56° C | 45% | 1017.1 hPa | - | - | - | - |
| 1777356992 | 15° C | 46% | 1017.1 hPa | - | - | - | - |
| 1777356097 | 13.89° C | 46% | 1017.4 hPa | - | - | - | - |
| 1777355191 | 13.33° C | 46% | 1017.3 hPa | - | - | - | - |
| 1777354291 | 13.33° C | 46% | 1017.1 hPa | - | - | - | - |
| 1777353389 | 13.33° C | 45% | 1017.1 hPa | - | - | - | - |
| 1777352928 | 13.33° C | 45% | 1017.2 hPa | - | - | - | - |
| 1777352488 | 13.33° C | 45% | 1017.2 hPa | - | - | - | - |
| 1777351587 | 13.89° C | 45% | 1016.8 hPa | - | - | - | - |
| 1777350687 | 13.89° C | 45% | 1016.5 hPa | - | - | - | - |
| 1777349786 | 13.33° C | 45% | 1016.4 hPa | - | - | - | - |
| 1777348885 | 13.33° C | 46% | 1016.4 hPa | - | - | - | - |
| 1777347984 | 13.33° C | 46% | 1016.5 hPa | - | - | - | - |
| 1777347091 | 13.33° C | 46% | 1016.5 hPa | - | - | - | - |
| 1777346182 | 13.33° C | 45% | 1016.8 hPa | - | - | - | - |
| 1777345284 | 13.33° C | 45% | 1016.7 hPa | - | - | - | - |
| 1777344381 | 13.33° C | 45% | 1016.8 hPa | - | - | - | - |
| 1777343477 | 13.89° C | 45% | 1016.8 hPa | - | - | - | - |
| 1777342572 | 16.11° C | 45% | 1016.8 hPa | - | - | - | - |
| 1777341691 | 13.89° C | 45% | 1017 hPa | - | - | - | - |
| 1777340790 | 13.89° C | 45% | 1017.4 hPa | - | - | - | - |
| 1777339889 | 13.33° C | 45% | 1017.6 hPa | - | - | - | - |
| 1777338988 | 13.33° C | 45% | 1017.9 hPa | - | - | - | - |
* Rain since midnight (hover to see other rain measurements)
** Current wind speed in m/s (hover to see current wind gust speed)